РПИ Санкт-Петербург

Региональный центр ЕС ОрВД Санкт-Петербург сети VATSIM входит в состав региона "Северо-западная Россия" и является структурным подразделением дивизиона VATRUS.

Региональный центр образован путем объединения Санкт-Петербургского, Мурманского, Архангельского, Котласского, Вологодского и Сыктывкарского районных центров ЕС ОрВД с общей зоной ответственности 4.2 млн кв. км.

Аэронавигационное обслуживание пользователей воздушного пространства осуществляется над территорией г. Санкт-Петербург, Ленинградской, Мурманской, Архангельской, Вологодской, Псковской областей, Республики Коми и Республики Карелия, а также Ненецкого автономного округа. В том числе осуществляется обслуживание в океаническом секторе над Северным Ледовитым океаном.

Смежными для Санкт-Петербурга являются региональные центры ЕС ОрВД Москва, Екатеринбург, Тюмень, Красноярск и Магадан. Также взаимодействие осуществляется с органами ОВД Белоруссии, Исландии, Норвегии, Финляндии, Эстонии, Латвии и США.

Для приятных полетов рекомендуем ознакомиться с секторизацией нашего РПИ.

Задать вопрос, оставить отзыв о работе диспетчеров РПИ Санкт-Петербург, а также предложения или пожелания можно в нашем дискорде. Ваша обратная связь помогает нам становиться лучше.

Лого Санкт-Петербург
Руководство

Alexey Kaznakov

Начальник РегЦ ЕС ОрВД (Санкт-Петербург)

Ekaterina Romanova

Руководитель АузДЦ ЕС Санкт-Петербург
Инструкторы РПИ
Akhmadjon Saidov (Instructor)
Aleksandr Ovodenko * (Controller)
Alexandr Vaganov (Instructor)
Alexey Kaznakov (Instructor)
Alexey Zimin (Instructor)
Dmitry Bugaychuk (Instructor)
Ekaterina Romanova (Instructor)
Maksim Otto (Instructor)
Maxim Demidov * (Controller)
Nikita Assorov * (Unknown)
Oleg Alov * (Controller)
Stanley Yorke * (Controller)
Vadim Drachev (Instructor)
Viktor Ivanov (Instructor)
Yury Koryagin (Instructor)
Входит в состав
Северо-западная Россия

Диспетчеры РПИ

Диспетчер Рейтинг Допуски *
Akhmadjon Saidov Instructor ULLL_CTR
Aleksandr Manko Controller ULLL_CTR
Aleksandr Ovodenko Controller ULLL_CTR
Alexandr Vaganov Instructor ULLL_CTR
Alexey Zimin Instructor ULLL_CTR
Dmitry Bugaychuk Instructor ULLL_CTR
Ekaterina Romanova Instructor ULLL_CTR
Maksim Otto Instructor ULLL_CTR
Maxim Demidov Controller ULLL_CTR
Mihail Kolesnik Unknown ULLL_CTR
Mikhail Satsik Controller ULLL_CTR , ULLL_1_APP, ULLL_APP, ULLL_2_APP
Nikita Voytko Controller ULLL_CTR
Oleg Alov Controller ULLL_CTR
Robert Farber Controller ULLL_CTR
Serafim Bedershtet Controller ULLL_CTR
Stanley Yorke Controller ULLL_CTR
Vadim Drachev Instructor ULLL_CTR
Viktor Ivanov Instructor ULLL_CTR
Vladimir Anisimov Senior Controller ULLL_CTR
Yan Stetsenko Controller ULLL_CTR
Aleksandr Mirtov Student 2 ULLI_TWR, ULLI_1_TWR, ULLI_2_TWR, ULLI_3_TWR, ULMM_TWR
Alexander Mikhin Instructor ULLI_TWR, ULLI_1_TWR, ULLI_2_TWR, ULLI_3_TWR
Alexandr Sosnovsky Senior Student ULAA_APP, ULLL_APP, ULLL_1_APP, ULLL_2_APP
Andrey Kashunin Student ULLI_GND
Andrey Mironov Student 2 ULAA_TWR, ULLI_TWR, ULLI_1_TWR, ULLI_3_TWR, ULLI_2_TWR, ULMM_TWR
Andrey Tarasov Senior Student ULLI_3_TWR, ULLI_2_TWR, ULLI_TWR, ULLI_1_TWR
Andrey Volanskiy Student 2 ULLI_3_TWR, ULLI_TWR, ULLI_1_TWR, ULLI_2_TWR
Arseny Sitnikov Student 2 ULLI_1_TWR, ULLI_2_TWR, ULLI_3_TWR, ULLI_TWR
Artem Badalov Senior Student ULLL_APP, ULLL_1_APP, ULLL_2_APP
Artur Mitskus Student 2 ULLI_GND
Daniil Deev Student ULLI_GND, ULLI_3_TWR*, ULLI_2_TWR*, ULLI_1_TWR*, ULLI_TWR*
Daniil Dolgikh Student ULLI_GND
David Markarian Student 2 ULLI_TWR, ULLI_1_TWR, ULLI_2_TWR, ULLI_3_TWR
Denis Zhmurenko Student 2 ULLI_TWR, ULLI_1_TWR, ULLI_3_TWR, ULLI_2_TWR
Dmitrii Ermakov Student 2 ULLI_3_TWR, ULLI_2_TWR, ULLI_TWR, ULLI_1_TWR
Dmitry Berezin Student 2 ULLI_TWR, ULLI_1_TWR, ULLI_2_TWR, ULLI_3_TWR
Evgeny Zuev Senior Student ULLI_GND
Grigoriy Novikov Student 2 ULAA_TWR, ULLI_2_TWR, ULLI_1_TWR, ULLI_TWR, ULLI_3_TWR, ULMM_TWR
Ilya Bogdanov Student ULLI_GND
Ivan Chumakov Student 2 ULLI_1_TWR, ULLI_2_TWR, ULLI_3_TWR, ULLI_TWR
Makar Lyzhnik Student ULLI_TWR*, ULLI_1_TWR*, ULLI_2_TWR*, ULLI_3_TWR*, ULLI_GND
Nikita Ovsyannikov Student 2 ULLI_1_TWR, ULLI_TWR, ULLI_R_APP*, ULLI_2_TWR, ULLI_3_TWR, ULMM_TWR, UUYY_TWR!!!
Nikita Smirnov Student ULLI_GND
Pavel Gavrilov Senior Student ULLL_1_APP, ULLL_APP, ULLL_2_APP, ULMM_R_APP
Pavel Popov Student ULLI_GND
Pavel Romanov Student 2 ULAA_TWR, ULLI_3_TWR, ULLI_2_TWR, ULLI_1_TWR, ULLI_TWR
Pavel Sergienko Senior Student ULAA_APP, ULLL_APP, ULLL_1_APP, ULLL_2_APP
Sasha Klyucharev Student 2 ULLI_1_TWR, ULLI_2_TWR, ULLI_3_TWR, ULLI_TWR
Sofya Belyaeva Student 2 ULLI_3_TWR, ULLI_2_TWR, ULLI_1_TWR, ULLI_TWR
Vyacheslav Varlamov Student ULLI_GND
Yakov Polushkin Student 2 ULLI_1_TWR, ULLI_TWR, ULLI_2_TWR, ULLI_3_TWR
Yan Sheyfer Senior Student ULLI_3_TWR, ULLI_TWR, ULLI_1_TWR, ULLI_2_TWR
Yury Pushkaryov Senior Student ULAA_APP, ULLL_APP, ULLL_1_APP, ULLL_2_APP

Аэропорты РПИ

ICAO Город Название Погода
ULLI Санкт-Петербург Пулково ULLI 240900Z 19006MPS 160V220 CAVOK 25/07 Q1028 R10L/090060 NOSIG
ULAA Архангельск Архангельск ULAA 240900Z 32008MPS 280V350 9999 FEW033 22/06 Q1017 R26/CLRD70 NOSIG RMK QFE761/1015
ULKK Котлас Котлас
XLLV Левашово Левашово
ULMM Мурманск Мурманск ULMM 240900Z 33004MPS 260V360 CAVOK 13/M01 Q1015 R31/090070 NOSIG RMK QFE754
ULAM Нарьян-Мар Нарьян-Мар
ULPB Петрозаводск Бесовец ULPB 240900Z AUTO 24008G13MPS 210V270 9999 // NCD 25/07 Q1026 RMK QFE766/1021
ULOO Псков Псков ULOO 240900Z 15005MPS 110V210 CAVOK 24/09 Q1028 R19/090068 NOSIG RMK QFE767
UUYY Сыктывкар Сыктывкар UUYY 240900Z 19004MPS 9999 FEW026CB BKN046 13/07 Q1020 R18/29//51 NOSIG RMK QFE756/1009
ULWC Череповец Череповец ULWC 240900Z 23004MPS CAVOK 22/05 Q1030 R21/010060 NOSIG RMK QFE762/1016